Новый Тап

Россия / Тюменская область     57°02′24″N   67°42′57″E
темп.,
°C
ветер,
м/с
пор.,
м/с
влажн.,
%
обл.,
%
осадки,
мм/ч
давл.,
гПа
погр.,
м
8 мая, сб
сб823:00+12юз35495 0.0 101982
02:00+11юз375745 0.0 1019111
05:00+10зюз25627 0.0 102090
08:00+16зюз24425 0.0 1019337
11:00+22юз232986 0.0 10191773
14:00+23ююз222195 0.0 10172432
17:00+23ю212139 0.0 10162530
20:00+18ююв223576 0.0 101618
9 мая, вс
вс923:00+15вюв113773 0.0 101611
02:00+13всв224499 0.0 101642
05:00+12в2551100 0.0 101781
08:00+16в475153 0.0 1018406
11:00+20в5738100 0.0 10181181
14:00+22в5733100 0.0 10181952
17:00+21всв4732100 0.0 10182292
20:00+17всв41039100 0.0 1020707
10 мая, пн
пн1023:00+14всв41143100 0.0 1021594
02:00+11всв395292 0.0 1022385
05:00+9всв31057100 0.0 1023340
08:00+12в484496 0.0 1025640
11:00+16в5733100 0.0 10251438
14:00+18в4528100 0.0 10251745
17:00+19в352769 0.0 10241854
20:00+14вюв1243100 0.0 102511
11 мая, вт
вт1123:00+11в0049100 0.0 102610
02:00+10ююв0054100 0.0 102610
05:00+9зюз115725 0.0 102710
08:00+16зюз1138100 0.0 1026348
11:00+19зюз2228100 0.0 10261602
14:00+20зюз3424100 0.0 10242050
17:00+19з3430100 0.0 10241712
20:00+15зюз244299 0.0 102373
12 мая, ср
ср1223:00+13сз497918 0.0 1024516
02:00+10ссз4107897 0.0 1024734
05:00+8ссз4108625 0.0 1025710
08:00+11с510467 0.0 1026945
11:00+14с692898 0.0 10261659
14:00+17с572973 0.0 10252376
17:00+16с573376 0.0 10262248
20:00+13ссз484568 0.0 1026399